Regional Weather Roundup
Issued by NWS Bismarck, ND

Home | Current Version | Previous Version | Text Only | Print | Product List | Glossary On
Versions: 1 2 3 4 5 6 7 8 9 10 11 12 13 14 15 16 17 18 19 20 21 22 23 24 25 26 27 28 29 30 31 32 33 34 35 36 37 38 39 40 41 42 43 44 45 46 47 48 49 50
000
ASUS43 KBIS 211310
RWRBIS

NWR BROADCAST TEXT
NATIONAL WEATHER SERVICE BISMARCK ND
700 AM CST WED FEB 21 2018

NOTE: "FAIR" INDICATES FEW OR NO CLOUDS BELOW 12,000 FEET WITH NO
SIGNIFICANT WEATHER AND/OR OBSTRUCTIONS TO VISIBILITY.


CITY           SKY/WX    TMP DP  RH WIND       PRES   REMARKS
WILLISTON      FAIR      -8 -14  74 SW8       30.29S WCI -24
MINOT          FAIR      -3 -13  62 SW9       30.27R WCI -19
MINOT AFB      CLEAR     -4 -13  65 W14       30.26R WCI -24
BISMARCK       FAIR     -10 -16  74 SW3       30.38R
DICKINSON      FAIR      -5 -14  65 SW12      30.25R WCI -23
GARRISON         N/A     -9 -16  71 W9        30.30R WCI -26
HETTINGER ARPT CLEAR    -16 -20  82 W3        30.30S
JAMESTOWN      FAIR      -4 -11  72 W6        30.36R WCI -16
CARRINGTON     FAIR      -6 -13  71 SW9       30.36R WCI -22
HAZEN            N/A     -9 -17  70 W8        30.36R WCI -26
LINTON           N/A    -11 -18  70 S5        30.41R WCI -23
MANDAN         FAIR      -9 -17  70 SW6       30.34S WCI -23
OAKES            N/A    -13 -20  70 S12       30.43R WCI -33
RUGBY          FAIR     -11 -17  77 S7        30.30R WCI -26
STANLEY        FAIR      -8 -13  77 W16       30.24S WCI -30
TIOGA          FAIR     -11 -17  77 SW12      30.25R WCI -31
WATFORD CITY   FAIR     -11 -18  70 CALM      30.29S
$$

CITY           SKY/WX    TMP DP  RH WIND       PRES   REMARKS
GRAND FORKS    FAIR      -3 -10  72 SW8       30.39R WCI -18
GRAND FORKS AF CLEAR     -2  -9  71 SW8       30.35R WCI -17
DEVILS LAKE    FAIR      -7 -13  75 SW15      30.33R WCI -28
FARGO          FAIR      -4 -11  72 S12       30.44R WCI -22
CANDO          FAIR      -9 -15  77 SW10      30.32S WCI -28
CAVALIER         N/A      0  -8  71 W12       30.33R WCI -18
GRAFTON        FAIR      -2  -9  71 CALM      30.39R
GWINNER          N/A    -11 -17  77 SW12      30.43R WCI -31
LANGDON        FAIR      -9 -13  84 SW9       30.28R WCI -27
ROLLA          FAIR      -9 -15  77 W14       30.24R WCI -31
WALHALLA       FAIR       0  -8  71 W13G18    30.32R WCI -18
$$

CITY           SKY/WX    TMP DP  RH WIND       PRES   REMARKS
ABERDEEN       PTCLDY   -22 -27  77 S5        30.48R WCI -36
MOBRIDGE       CLEAR    -14 -20  74 NW3       30.38S
BUFFALO          N/A     -5 -14  65 SW5       30.19S WCI -16
RAPID CITY     PTCLDY   -14 -17  87 NW5       30.27F WCI -26
GLASGOW        PTCLDY   -16 -21  78 E5        30.25S WCI -29
SIDNEY         CLEAR    -17 -22  78 CALM      30.31S
WOLF POINT     PTCLDY   -19 -24  77 SW5       30.31R WCI -32
GLENDIVE       CLEAR    -16 -22  74 SW6       30.28S WCI -31
MILES CITY     MOCLDY   -16 -19  87 S5        30.26F WCI -29
BAKER          CLEAR    -18 -21  87 N5        30.25R WCI -31
$$

CITY           SKY/WX    TMP DP  RH WIND       PRES   REMARKS
BILLINGS       MOCLDY    -4 -10  75 SW10      30.14S WCI -21
GREAT FALLS    CLEAR     -9 -13  83 SW8       30.08F WCI -25
$$





USA.gov is the U.S. government's official web portal to all federal, state and local government web resources and services.